CW3175 Weather Reports


time (UTC)temp
F
wind
direction
speed
knots
gust
knots
rain 1hr
in
rain 24hr
in
rain mn
in
humidity
%
barometer
mb
20160627214954 80 55 6.1 14.8 0.00 0.00 0.00 48 1012.6
20160627213450 82 34 6.1 15.6 0.00 0.00 0.00 48 1012.3
20160627211945 92 313 3.5 9.6 0.00 0.00 0.00 24 1012.0
20160627210446 92 290 5.2 18.2 0.00 0.00 0.00 24 1012.0
20160627204946 91 0 7.0 15.6 0.00 0.00 0.00 23 1012.0
20160627203448 93 32 5.2 14.8 0.00 0.00 0.00 22 1011.9
20160627203443 92 304 7.0 16.5 0.00 0.00 0.00 25 1011.9
20160627200442 92 259 5.2 15.6 0.00 0.00 0.00 24 1012.1
20160627194938 93 333 4.3 15.6 0.00 0.00 0.00 23 1012.1
20160627193432 93 319 5.2 16.5 0.00 0.00 0.00 24 1012.4
20160627191933 94 296 2.6 11.3 0.00 0.00 0.00 25 1012.4
20160627190430 93 271 3.5 14.8 0.00 0.00 0.00 26 1012.4
20160627184925 93 309 4.3 14.8 0.00 0.00 0.00 25 1012.6
20160627183424 93 300 2.6 12.2 0.00 0.00 0.00 26 1012.5
20160627181920 92 257 4.3 13.0 0.00 0.00 0.00 26 1012.8
20160627180420 92 336 3.5 13.0 0.00 0.00 0.00 27 1012.9
20160627174918 92 323 6.1 16.5 0.00 0.00 0.00 27 1013.1
20160627173418 93 282 3.5 14.8 0.00 0.00 0.00 26 1013.0
20160627171919 92 275 3.5 13.0 0.00 0.00 0.00 28 1013.1
20160627170420 92 282 2.6 12.2 0.00 0.00 0.00 28 1013.3
20160627164918 92 244 2.6 10.4 0.00 0.00 0.00 27 1013.4
20160627163419 92 260 2.6 10.4 0.00 0.00 0.00 28 1013.4
20160627161919 91 295 2.6 10.4 0.00 0.01 0.00 31 1013.4
20160627160413 91 236 1.7 9.6 0.00 0.01 0.00 31 1013.4
20160627154908 90 271 2.6 11.3 0.00 0.01 0.00 32 1013.4
20160627153407 90 290 2.6 12.2 0.00 0.01 0.00 33 1013.4
20160627151906 89 242 2.6 12.2 0.00 0.01 0.00 34 1013.4
20160627150408 89 334 1.7 10.4 0.00 0.01 0.00 36 1013.4
20160627144904 88 308 2.6 13.0 0.00 0.01 0.00 36 1013.4
20160627143407 88 269 0.9 8.7 0.00 0.01 0.00 39 1013.3
20160627143402 87 273 0.9 8.7 0.00 0.01 0.00 41 1013.6
20160627140342 87 252 0.9 6.1 0.00 0.01 0.00 42 1013.6
20160627134842 86 296 0.0 5.2 0.00 0.01 0.00 44 1013.8
20160627133343 85 175 0.0 2.6 0.00 0.01 0.00 47 1013.7
20160627131843 84 272 0.0 4.3 0.00 0.01 0.00 51 1013.9
20160627130327 83 288 0.0 4.3 0.00 0.01 0.00 52 1013.9
20160627130321 82 290 0.0 4.3 0.00 0.03 0.00 54 1013.9
20160627123253 80 250 0.0 6.1 0.00 0.24 0.00 58 1013.8
20160627121752 79 296 0.0 1.7 0.00 0.24 0.00 59 1013.7
20160627120249 78 270 0.0 3.5 0.00 0.24 0.00 63 1013.9
20160627120245 78 277 0.0 5.2 0.00 0.24 0.00 61 1013.7
20160627113244 77 290 0.0 3.5 0.00 0.24 0.00 65 1013.9
20160627113236 76 289 0.0 0.9 0.00 0.24 0.00 68 1013.8
20160627110234 75 286 0.0 0.0 0.00 0.24 0.00 70 1014.0
20160627104721 74 286 0.0 0.9 0.00 0.24 0.00 72 1014.0
20160627104716 74 286 0.0 0.0 0.00 0.24 0.00 72 1013.7
20160627101710 74 286 0.0 3.5 0.00 0.24 0.00 72 1013.7
20160627100159 74 286 0.0 4.3 0.00 0.24 0.00 71 1013.6
20160627094647 75 282 0.0 4.3 0.00 0.24 0.00 70 1013.6
20160627093148 75 285 0.0 3.5 0.00 0.24 0.00 71 1013.4
20160627091644 75 288 0.0 4.3 0.00 0.24 0.00 71 1013.6
20160627090125 75 267 0.0 5.2 0.00 0.24 0.00 71 1013.6
20160627084625 75 290 0.0 3.5 0.00 0.24 0.00 70 1013.6
20160627083119 75 313 0.0 0.9 0.00 0.24 0.00 69 1013.6
20160627083109 75 275 0.9 6.1 0.00 0.24 0.00 68 1013.6
20160627080100 76 290 0.9 4.3 0.00 0.24 0.00 66 1013.8
20160627080056 76 221 0.9 5.2 0.00 0.24 0.00 67 1013.6
20160627074542 76 287 0.0 0.9 0.00 0.24 0.00 64 1013.9
20160627073146 76 249 0.0 4.3 0.00 0.24 0.00 64 1013.8
20160627070032 76 280 0.0 0.9 0.00 0.24 0.00 63 1013.9
20160627064532 76 280 0.0 0.0 0.00 0.24 0.00 61 1014.2
20160627064527 76 280 0.0 0.0 0.00 0.24 0.00 61 1014.2
20160627061516 77 280 0.0 0.0 0.00 0.24 0.00 60 1014.2
20160627055956 77 280 0.0 0.0 0.00 0.24 0.00 59 1014.1
20160627054445 78 280 0.0 0.9 0.00 0.24 0.00 57 1014.2
20160627054432 78 280 0.0 0.0 0.00 0.24 0.00 56 1014.1
20160627053039 78 280 0.0 3.5 0.00 0.24 0.00 54 1013.8
20160627051418 79 265 0.0 1.7 0.00 0.24 0.00 53 1014.0
20160627044402 79 249 0.0 2.6 0.00 0.24 0.00 52 1013.8
20160627042903 80 272 0.0 3.5 0.00 0.24 0.00 50 1013.7
20160627041359 80 290 0.0 1.7 0.00 0.24 0.00 48 1013.7
20160627035851 81 290 0.0 3.5 0.00 0.24 0.00 45 1013.7
20160627034350 81 294 0.0 2.6 0.00 0.24 0.00 44 1013.7
20160627034341 81 284 0.0 0.0 0.00 0.24 0.00 43 1013.7
20160627032834 82 284 0.0 0.9 0.00 0.24 0.00 42 1013.6
20160627031328 82 284 0.0 0.0 0.00 0.24 0.00 41 1013.3
20160627024322 83 284 0.0 0.0 0.00 0.24 0.00 39 1013.1
20160627024317 83 284 0.0 0.0 0.00 0.24 0.00 37 1012.6
20160627021307 84 284 0.0 0.0 0.00 0.24 0.00 35 1012.3
20160627015803 85 283 0.9 6.1 0.00 0.24 0.00 34 1012.2
20160627015756 85 301 0.0 2.6 0.00 0.24 0.00 33 1012.2
20160627012741 86 298 0.0 5.2 0.00 0.24 0.00 31 1012.1
20160627011231 87 313 0.0 6.1 0.00 0.24 0.00 31 1012.0
20160627005731 87 283 1.7 8.7 0.00 0.24 0.00 30 1011.9
20160627004205 87 269 1.7 10.4 0.00 0.24 0.00 30 1012.0
20160627002704 86 304 0.0 4.3 0.00 0.24 0.00 39 1012.1
20160627001206 86 101 0.0 1.7 0.00 0.24 0.00 49 1012.3
20160626235701 85 101 0.0 2.6 0.00 0.24 0.24 54 1012.0
20160626234157 85 164 0.9 4.3 0.00 0.24 0.24 58 1012.0
20160626232659 85 101 0.9 4.3 0.00 0.24 0.24 56 1012.0
20160626231150 88 87 0.9 8.7 0.00 0.24 0.24 51 1011.8
20160626225652 92 300 1.7 9.6 0.00 0.24 0.24 32 1011.4
20160626225648 91 351 1.7 11.3 0.00 0.24 0.24 30 1011.4
20160626222644 91 304 0.9 8.7 0.00 0.24 0.24 35 1011.4
20160626221132 91 287 2.6 12.2 0.00 0.24 0.24 39 1011.3